Time,TemperatureF,DewpointF,PressureIn,WindDirection,WindDirectionDegrees,WindSpeedMPH,WindSpeedGustMPH,Humidity,HourlyPrecipIn,Conditions,Clouds,dailyrainin,SoftwareType,DateUTC
2013-07-08 00:00:00,74.5,51.8,29.82,SSE,150,0.0,0.0,45,0.00,,BKN110,0.00,VWS V14.01,2013-07-08 05:00:00,
2013-07-08 00:06:00,74.3,52.8,29.82,SSE,151,0.0,0.0,47,0.00,,CLR,0.00,VWS V14.01,2013-07-08 05:06:00,
2013-07-08 00:11:00,74.1,52.6,29.82,SSE,161,2.2,3.6,47,0.00,,CLR,0.00,VWS V14.01,2013-07-08 05:11:00,
2013-07-08 00:17:00,73.9,52.5,29.82,SE,141,0.0,0.0,47,0.00,,CLR,0.00,VWS V14.01,2013-07-08 05:17:00,
2013-07-08 00:23:00,73.9,53.0,29.82,South,190,3.1,3.1,48,0.00,,CLR,0.00,VWS V14.01,2013-07-08 05:23:00,
2013-07-08 00:28:00,73.9,53.6,29.82,South,179,2.2,3.1,49,0.00,,CLR,0.00,VWS V14.01,2013-07-08 05:28:00,
2013-07-08 00:34:00,73.9,54.2,29.82,SSE,157,3.6,5.4,50,0.00,,CLR,0.00,VWS V14.01,2013-07-08 05:34:00,
2013-07-08 00:40:00,73.9,54.7,29.82,South,190,0.0,6.3,51,0.00,,CLR,0.00,VWS V14.01,2013-07-08 05:40:00,
2013-07-08 00:45:00,74.1,55.9,29.82,South,180,2.7,4.0,53,0.00,,CLR,0.00,VWS V14.01,2013-07-08 05:45:00,
2013-07-08 00:51:00,74.1,56.4,29.79,SSE,159,4.0,4.0,54,0.00,,CLR,0.00,VWS V14.01,2013-07-08 05:51:00,
2013-07-08 00:56:00,74.1,55.9,29.79,WSW,245,5.8,5.8,53,0.00,,CLR,0.00,VWS V14.01,2013-07-08 05:56:00,
2013-07-08 01:02:00,74.3,56.1,29.79,SSW,203,2.2,2.7,53,0.00,,SCT110,0.00,VWS V14.01,2013-07-08 06:02:00,
2013-07-08 01:07:00,74.3,56.1,29.79,SW,231,2.7,3.6,53,0.00,,SCT110,0.00,VWS V14.01,2013-07-08 06:07:00,
2013-07-08 01:13:00,74.3,56.1,29.79,South,170,0.0,3.6,53,0.00,,SCT110,0.00,VWS V14.01,2013-07-08 06:13:00,
2013-07-08 01:19:00,74.1,55.9,29.79,SSW,207,2.7,4.0,53,0.00,,SCT110,0.00,VWS V14.01,2013-07-08 06:19:00,
2013-07-08 01:24:00,74.1,56.4,29.79,SSW,205,5.4,5.4,54,0.00,,SCT110,0.00,VWS V14.01,2013-07-08 06:24:00,
2013-07-08 01:29:00,74.1,56.4,29.79,South,189,4.9,4.9,54,0.00,,SCT110,0.00,VWS V14.01,2013-07-08 06:29:00,
2013-07-08 01:34:00,74.1,56.4,29.79,SSW,206,0.0,0.0,54,0.00,,SCT110,0.00,VWS V14.01,2013-07-08 06:34:00,
2013-07-08 01:40:00,73.9,56.8,29.79,South,179,2.2,3.1,55,0.00,,SCT110,0.00,VWS V14.01,2013-07-08 06:40:00,
2013-07-08 01:45:00,73.9,57.3,29.79,SSW,199,2.7,5.4,56,0.00,,SCT110,0.00,VWS V14.01,2013-07-08 06:45:00,
2013-07-08 01:50:00,73.9,57.3,29.79,South,178,0.0,0.0,56,0.00,,SCT110,0.00,VWS V14.01,2013-07-08 06:50:00,
2013-07-08 01:55:00,73.9,57.8,29.79,SSW,208,0.0,3.6,57,0.00,,SCT110,0.00,VWS V14.01,2013-07-08 06:55:00,
2013-07-08 02:00:00,73.9,57.8,29.79,SW,223,3.6,3.6,57,0.00,,SCT110,0.00,VWS V14.01,2013-07-08 07:00:00,
2013-07-08 02:05:00,73.8,57.6,29.79,SW,229,0.0,3.1,57,0.00,,CLR,0.00,VWS V14.01,2013-07-08 07:05:00,
2013-07-08 02:11:00,73.9,57.8,29.79,South,189,3.1,5.4,57,0.00,,CLR,0.00,VWS V14.01,2013-07-08 07:11:00,
2013-07-08 02:16:00,73.9,57.8,29.79,South,188,4.0,4.0,57,0.00,,CLR,0.00,VWS V14.01,2013-07-08 07:16:00,
2013-07-08 02:22:00,73.9,57.3,29.79,South,176,0.0,0.0,56,0.00,,CLR,0.00,VWS V14.01,2013-07-08 07:22:00,
2013-07-08 02:27:00,73.9,57.3,29.79,SW,217,4.0,4.0,56,0.00,,CLR,0.00,VWS V14.01,2013-07-08 07:27:00,
2013-07-08 02:33:00,73.9,57.3,29.79,SSE,164,4.0,4.0,56,0.00,,CLR,0.00,VWS V14.01,2013-07-08 07:33:00,
2013-07-08 02:38:00,73.9,57.3,29.79,SSW,193,2.7,5.8,56,0.00,,CLR,0.00,VWS V14.01,2013-07-08 07:38:00,
2013-07-08 02:43:00,73.8,57.1,29.79,SSW,204,2.2,2.7,56,0.00,,CLR,0.00,VWS V14.01,2013-07-08 07:43:00,
2013-07-08 02:48:00,73.8,57.6,29.76,SSW,193,2.7,3.1,57,0.00,,CLR,0.00,VWS V14.01,2013-07-08 07:48:00,
2013-07-08 02:54:00,73.8,57.6,29.76,SSE,148,6.3,6.3,57,0.00,,CLR,0.00,VWS V14.01,2013-07-08 07:54:00,
2013-07-08 02:59:00,73.8,57.6,29.76,SW,223,0.0,0.0,57,0.00,,CLR,0.00,VWS V14.01,2013-07-08 07:59:00,
2013-07-08 03:05:00,73.8,57.6,29.76,SSW,212,4.0,4.0,57,0.00,,CLR,0.00,VWS V14.01,2013-07-08 08:05:00,
2013-07-08 03:11:00,73.6,57.4,29.76,SSW,205,0.0,2.7,57,0.00,,CLR,0.00,VWS V14.01,2013-07-08 08:11:00,
2013-07-08 03:16:00,73.6,57.9,29.79,SSE,166,2.7,5.8,58,0.00,,CLR,0.00,VWS V14.01,2013-07-08 08:16:00,
2013-07-08 03:22:00,73.6,57.9,29.79,SSE,159,2.7,3.6,58,0.00,,CLR,0.00,VWS V14.01,2013-07-08 08:22:00,
2013-07-08 03:28:00,73.8,57.6,29.79,SSE,168,0.0,6.3,57,0.00,,CLR,0.00,VWS V14.01,2013-07-08 08:28:00,
2013-07-08 03:33:00,73.8,57.6,29.76,SW,218,3.6,3.6,57,0.00,,CLR,0.00,VWS V14.01,2013-07-08 08:33:00,
2013-07-08 03:39:00,73.8,57.6,29.76,SSW,192,0.0,6.3,57,0.00,,CLR,0.00,VWS V14.01,2013-07-08 08:39:00,
2013-07-08 03:44:00,73.8,57.1,29.76,South,174,0.0,2.7,56,0.00,,CLR,0.00,VWS V14.01,2013-07-08 08:44:00,
2013-07-08 03:49:00,73.9,56.8,29.76,SSE,163,4.0,6.3,55,0.00,,CLR,0.00,VWS V14.01,2013-07-08 08:49:00,
2013-07-08 03:54:00,73.8,56.6,29.76,SSE,157,0.0,0.0,55,0.00,,CLR,0.00,VWS V14.01,2013-07-08 08:54:00,
2013-07-08 03:59:00,73.8,56.6,29.76,SSW,197,0.0,3.1,55,0.00,,CLR,0.00,VWS V14.01,2013-07-08 08:59:00,
2013-07-08 04:04:00,73.8,56.6,29.76,SSW,197,3.1,3.1,55,0.00,,CLR,0.00,VWS V14.01,2013-07-08 09:04:00,
2013-07-08 04:09:00,73.6,56.4,29.76,South,180,6.3,6.3,55,0.00,,CLR,0.00,VWS V14.01,2013-07-08 09:09:00,
2013-07-08 04:15:00,73.6,56.4,29.76,South,187,4.0,4.9,55,0.00,,CLR,0.00,VWS V14.01,2013-07-08 09:15:00,
2013-07-08 04:20:00,73.6,56.4,29.76,South,177,3.1,4.9,55,0.00,,CLR,0.00,VWS V14.01,2013-07-08 09:20:00,
2013-07-08 04:25:00,73.6,56.4,29.76,South,190,3.6,4.5,55,0.00,,CLR,0.00,VWS V14.01,2013-07-08 09:25:00,
2013-07-08 04:30:00,73.6,56.4,29.76,SSW,203,2.7,6.3,55,0.00,,CLR,0.00,VWS V14.01,2013-07-08 09:30:00,
2013-07-08 04:36:00,73.6,56.4,29.76,SSE,167,2.7,3.6,55,0.00,,CLR,0.00,VWS V14.01,2013-07-08 09:36:00,
2013-07-08 04:41:00,73.6,56.4,29.76,SSE,160,2.7,3.6,55,0.00,,CLR,0.00,VWS V14.01,2013-07-08 09:41:00,
2013-07-08 04:46:00,73.6,56.4,29.76,SSW,209,3.1,4.9,55,0.00,,CLR,0.00,VWS V14.01,2013-07-08 09:46:00,
2013-07-08 04:51:00,73.4,56.3,29.76,South,191,5.4,5.4,55,0.00,,CLR,0.00,VWS V14.01,2013-07-08 09:51:00,
2013-07-08 04:57:00,73.4,56.8,29.76,South,182,3.6,5.4,56,0.00,,CLR,0.00,VWS V14.01,2013-07-08 09:57:00,
2013-07-08 05:03:00,73.2,56.6,29.76,SW,233,4.9,5.4,56,0.00,,SCT120,0.00,VWS V14.01,2013-07-08 10:03:00,
2013-07-08 05:08:00,73.2,56.6,29.76,West,274,9.6,9.6,56,0.00,,SCT120,0.00,VWS V14.01,2013-07-08 10:08:00,
2013-07-08 05:14:00,73.6,56.4,29.76,SW,231,8.1,8.7,55,0.00,,SCT120,0.00,VWS V14.01,2013-07-08 10:14:00,
2013-07-08 05:19:00,73.6,56.9,29.76,SSW,210,7.2,10.1,56,0.00,,SCT120,0.00,VWS V14.01,2013-07-08 10:19:00,
2013-07-08 05:25:00,73.2,60.3,29.76,SW,220,4.0,10.5,64,0.11,,SCT120,0.11,VWS V14.01,2013-07-08 10:25:00,
2013-07-08 05:30:00,72.3,63.6,29.76,SW,225,8.1,10.5,74,0.32,,SCT120,0.32,VWS V14.01,2013-07-08 10:30:00,
2013-07-08 05:36:00,71.6,65.5,29.79,WSW,237,10.1,11.0,81,0.43,,SCT120,0.43,VWS V14.01,2013-07-08 10:36:00,
2013-07-08 05:42:00,71.4,67.0,29.79,WSW,245,12.8,12.8,86,0.43,,SCT120,0.43,VWS V14.01,2013-07-08 10:42:00,
2013-07-08 05:48:00,71.4,67.7,29.79,SSW,206,6.3,7.6,88,0.49,,SCT120,0.49,VWS V14.01,2013-07-08 10:48:00,
2013-07-08 05:53:00,71.1,67.7,29.79,North,7,6.3,8.1,89,0.70,,SCT120,0.70,VWS V14.01,2013-07-08 10:53:00,
2013-07-08 05:58:00,71.1,68.0,29.79,WSW,251,5.4,7.2,90,0.81,,SCT120,0.81,VWS V14.01,2013-07-08 10:58:00,
2013-07-08 06:03:00,70.9,68.4,29.79,SW,229,5.8,10.5,92,0.81,,,0.81,VWS V14.01,2013-07-08 11:03:00,
2013-07-08 06:08:00,70.9,69.1,29.79,WSW,238,13.6,13.6,94,0.81,,,0.81,VWS V14.01,2013-07-08 11:08:00,
2013-07-08 06:14:00,70.9,69.4,29.79,SSW,213,8.7,8.7,95,0.81,,,0.81,VWS V14.01,2013-07-08 11:14:00,
2013-07-08 06:19:00,70.7,69.2,29.79,SW,226,10.5,10.5,95,0.86,,,0.86,VWS V14.01,2013-07-08 11:19:00,
2013-07-08 06:24:00,70.7,69.2,29.79,SSW,210,8.3,8.3,95,0.81,,,0.86,VWS V14.01,2013-07-08 11:24:00,
2013-07-08 06:30:00,70.7,69.2,29.79,West,274,8.7,8.7,95,0.65,,,0.86,VWS V14.01,2013-07-08 11:30:00,
2013-07-08 06:35:00,70.5,69.0,29.76,SW,229,6.3,8.1,95,0.43,,,0.86,VWS V14.01,2013-07-08 11:35:00,
2013-07-08 06:41:00,70.7,69.2,29.76,WSW,250,6.3,8.1,95,0.43,,,0.86,VWS V14.01,2013-07-08 11:41:00,
2013-07-08 06:46:00,70.7,69.5,29.79,WSW,256,5.8,5.8,96,0.43,,,0.86,VWS V14.01,2013-07-08 11:46:00,
2013-07-08 06:51:00,70.7,69.5,29.79,SW,217,2.7,3.6,96,0.38,,,0.92,VWS V14.01,2013-07-08 11:51:00,
2013-07-08 06:56:00,70.7,69.8,29.79,SW,217,0.0,0.0,97,0.16,,,0.92,VWS V14.01,2013-07-08 11:56:00,
2013-07-08 07:02:00,70.7,69.8,29.82,North,1,0.0,2.7,97,0.11,,,0.92,VWS V14.01,2013-07-08 12:02:00,
2013-07-08 07:07:00,70.7,69.8,29.82,North,357,2.2,2.2,97,0.16,,,0.97,VWS V14.01,2013-07-08 12:07:00,
2013-07-08 07:13:00,70.5,69.6,29.82,NNW,340,0.0,0.0,97,0.16,,,0.97,VWS V14.01,2013-07-08 12:13:00,
2013-07-08 07:19:00,70.5,69.6,29.82,North,353,0.0,0.0,97,0.11,,,0.97,VWS V14.01,2013-07-08 12:19:00,
2013-07-08 07:24:00,70.5,69.6,29.82,West,263,0.0,0.0,97,0.16,,,1.02,VWS V14.01,2013-07-08 12:24:00,
2013-07-08 07:29:00,70.5,69.6,29.82,West,262,0.0,0.0,97,0.16,,,1.02,VWS V14.01,2013-07-08 12:29:00,
2013-07-08 07:34:00,70.5,69.6,29.82,West,262,0.0,0.0,97,0.16,,,1.02,VWS V14.01,2013-07-08 12:34:00,
2013-07-08 07:39:00,70.5,69.6,29.82,West,263,0.0,0.0,97,0.16,,,1.02,VWS V14.01,2013-07-08 12:39:00,
2013-07-08 07:45:00,70.3,69.2,29.82,NNE,12,3.6,5.8,96,0.27,,,1.13,VWS V14.01,2013-07-08 12:45:00,
2013-07-08 07:50:00,70.0,68.8,29.85,NW,322,0.0,0.0,96,0.32,,,1.24,VWS V14.01,2013-07-08 12:50:00,
2013-07-08 07:56:00,70.0,68.8,29.85,WNW,297,0.0,0.0,96,0.59,,,1.51,VWS V14.01,2013-07-08 12:56:00,
2013-07-08 08:01:00,69.8,68.6,29.82,South,172,3.6,3.6,96,0.92,, +RA,1.83,VWS V14.01,2013-07-08 13:01:00,
2013-07-08 08:06:00,69.6,68.4,29.82,SW,214,2.7,3.1,96,0.97,, +RA,1.94,VWS V14.01,2013-07-08 13:06:00,
2013-07-08 08:12:00,69.6,68.7,29.82,SW,227,5.4,5.4,97,1.02,, +RA,2.00,VWS V14.01,2013-07-08 13:12:00,
2013-07-08 08:17:00,69.4,68.6,29.82,SW,226,0.0,0.0,97,1.13,, +RA,2.10,VWS V14.01,2013-07-08 13:17:00,
2013-07-08 08:22:00,69.3,68.4,29.82,SSW,213,5.8,5.8,97,1.13,, +RA,2.10,VWS V14.01,2013-07-08 13:22:00,
2013-07-08 08:27:00,69.4,68.6,29.82,South,181,2.7,3.6,97,1.08,, +RA,2.10,VWS V14.01,2013-07-08 13:27:00,
2013-07-08 08:33:00,69.4,68.8,29.82,SSW,203,7.2,7.2,98,1.08,, +RA,2.10,VWS V14.01,2013-07-08 13:33:00,
2013-07-08 08:38:00,69.6,69.0,29.82,SSW,213,3.6,4.0,98,1.13,, +RA,2.16,VWS V14.01,2013-07-08 13:38:00,
2013-07-08 08:44:00,69.8,69.2,29.82,SSW,206,3.1,4.9,98,1.08,, +RA,2.16,VWS V14.01,2013-07-08 13:44:00,
2013-07-08 08:50:00,70.0,69.4,29.79,SSE,165,5.4,5.4,98,1.02,, +RA,2.21,VWS V14.01,2013-07-08 13:50:00,
2013-07-08 08:55:00,70.0,69.4,29.79,South,190,3.6,5.4,98,0.76,, +RA,2.21,VWS V14.01,2013-07-08 13:55:00,
2013-07-08 09:00:00,70.2,69.6,29.79,SSW,199,3.6,4.0,98,0.54,, +RA,2.21,VWS V14.01,2013-07-08 14:00:00,
2013-07-08 09:05:00,70.5,69.9,29.82,SSW,194,4.0,6.7,98,0.27,,RA,2.21,VWS V14.01,2013-07-08 14:05:00,
2013-07-08 09:10:00,70.5,69.9,29.82,WSW,249,3.1,4.0,98,0.22,,RA,2.21,VWS V14.01,2013-07-08 14:10:00,
2013-07-08 09:16:00,70.9,70.3,29.82,SW,214,2.7,3.6,98,0.16,,RA,2.21,VWS V14.01,2013-07-08 14:16:00,
2013-07-08 09:22:00,71.2,70.7,29.82,South,180,2.7,5.4,98,0.11,,RA,2.21,VWS V14.01,2013-07-08 14:22:00,
2013-07-08 09:27:00,71.6,71.0,29.82,SW,233,3.6,6.3,98,0.11,,RA,2.21,VWS V14.01,2013-07-08 14:27:00,
2013-07-08 09:33:00,72.3,71.7,29.82,WSW,249,8.3,8.3,98,0.11,,RA,2.21,VWS V14.01,2013-07-08 14:33:00,
2013-07-08 09:38:00,72.1,71.6,29.82,West,269,5.8,6.3,98,0.05,,RA,2.21,VWS V14.01,2013-07-08 14:38:00,
2013-07-08 09:43:00,72.3,71.7,29.82,SSW,203,4.5,6.3,98,0.05,,RA,2.21,VWS V14.01,2013-07-08 14:43:00,
2013-07-08 09:48:00,72.3,71.7,29.82,SW,220,3.6,6.3,98,0.00,,RA,2.21,VWS V14.01,2013-07-08 14:48:00,
2013-07-08 09:53:00,72.3,71.7,29.82,South,174,3.6,5.4,98,0.00,,RA,2.21,VWS V14.01,2013-07-08 14:53:00,
2013-07-08 09:58:00,72.7,72.1,29.82,SSW,202,9.2,9.2,98,0.00,,RA,2.21,VWS V14.01,2013-07-08 14:58:00,
2013-07-08 10:04:00,72.7,72.1,29.82,WSW,257,2.7,5.8,98,0.00,,-RA,2.21,VWS V14.01,2013-07-08 15:04:00,
2013-07-08 10:10:00,72.5,71.0,29.82,WSW,244,5.4,11.4,95,0.00,,-RA,2.21,VWS V14.01,2013-07-08 15:10:00,
2013-07-08 10:15:00,72.9,68.4,29.82,WSW,256,5.4,5.4,86,0.00,,-RA,2.21,VWS V14.01,2013-07-08 15:15:00,
2013-07-08 10:21:00,72.9,64.5,29.82,SW,232,5.4,7.6,75,0.00,,-RA,2.21,VWS V14.01,2013-07-08 15:21:00,
2013-07-08 10:26:00,73.8,63.8,29.82,South,182,3.6,8.3,71,0.00,,-RA,2.21,VWS V14.01,2013-07-08 15:26:00,
2013-07-08 10:31:00,74.1,62.0,29.82,South,175,3.6,5.8,66,0.00,,-RA,2.21,VWS V14.01,2013-07-08 15:31:00,
2013-07-08 10:36:00,74.3,60.9,29.82,South,191,5.8,5.8,63,0.00,,-RA,2.21,VWS V14.01,2013-07-08 15:36:00,
2013-07-08 10:41:00,74.5,61.1,29.82,SSW,196,4.9,8.3,63,0.00,,-RA,2.21,VWS V14.01,2013-07-08 15:41:00,
2013-07-08 10:46:00,74.7,60.8,29.82,SW,228,4.9,5.8,62,0.00,,-RA,2.21,VWS V14.01,2013-07-08 15:46:00,
2013-07-08 10:52:00,74.8,61.4,29.82,SW,225,2.7,5.4,63,0.00,,-RA,2.21,VWS V14.01,2013-07-08 15:52:00,
2013-07-08 10:57:00,75.2,60.4,29.82,SSW,211,4.0,5.4,60,0.00,,-RA,2.21,VWS V14.01,2013-07-08 15:57:00,
2013-07-08 11:03:00,75.4,59.6,29.82,SW,229,2.7,4.9,58,0.00,,BKN050,2.21,VWS V14.01,2013-07-08 16:03:00,
2013-07-08 11:08:00,75.4,59.6,29.82,SW,226,5.4,6.3,58,0.00,,BKN050,2.21,VWS V14.01,2013-07-08 16:08:00,
2013-07-08 11:14:00,75.6,59.8,29.82,WSW,248,3.6,4.0,58,0.00,,BKN050,2.21,VWS V14.01,2013-07-08 16:14:00,
2013-07-08 11:19:00,75.7,59.4,29.82,SW,230,4.0,5.4,57,0.00,,BKN050,2.21,VWS V14.01,2013-07-08 16:19:00,
2013-07-08 11:24:00,75.9,59.6,29.82,SW,236,0.0,4.9,57,0.00,,BKN050,2.21,VWS V14.01,2013-07-08 16:24:00,
2013-07-08 11:29:00,76.1,57.8,29.82,WSW,256,7.6,7.6,53,0.00,,BKN050,2.21,VWS V14.01,2013-07-08 16:29:00,
2013-07-08 11:35:00,76.5,59.6,29.82,SW,232,4.5,4.5,56,0.00,,BKN050,2.21,VWS V14.01,2013-07-08 16:35:00,
2013-07-08 11:41:00,76.6,56.6,29.82,SW,230,4.0,4.9,50,0.00,,BKN050,2.21,VWS V14.01,2013-07-08 16:41:00,
2013-07-08 11:46:00,76.6,57.7,29.82,SW,236,5.8,5.8,52,0.00,,BKN050,2.21,VWS V14.01,2013-07-08 16:46:00,
2013-07-08 11:51:00,76.5,57.5,29.82,SW,230,0.0,2.2,52,0.00,,BKN050,2.21,VWS V14.01,2013-07-08 16:51:00,
2013-07-08 11:57:00,76.8,59.5,29.82,NE,45,3.1,3.1,55,0.00,,BKN050,2.21,VWS V14.01,2013-07-08 16:57:00,
2013-07-08 12:02:00,76.8,56.2,29.79,SSW,195,3.6,4.9,49,0.00,,BKN015,2.21,VWS V14.01,2013-07-08 17:02:00,
2013-07-08 12:07:00,76.8,56.8,29.79,SW,234,2.2,3.1,50,0.00,,BKN015,2.21,VWS V14.01,2013-07-08 17:07:00,
2013-07-08 12:13:00,76.6,57.2,29.79,North,1,3.1,7.6,51,0.00,,BKN015,2.21,VWS V14.01,2013-07-08 17:13:00,
2013-07-08 12:18:00,76.5,58.1,29.79,NNE,22,0.0,4.0,53,0.00,,BKN015,2.21,VWS V14.01,2013-07-08 17:18:00,
2013-07-08 12:24:00,76.8,58.4,29.79,North,3,0.0,0.0,53,0.00,,BKN015,2.21,VWS V14.01,2013-07-08 17:24:00,
2013-07-08 12:31:00,77.7,58.2,29.79,SW,221,6.3,6.3,51,0.00,,BKN015,2.21,VWS V14.01,2013-07-08 17:31:00,
2013-07-08 12:36:00,78.3,57.0,29.79,NE,41,0.0,4.0,48,0.00,,BKN015,2.21,VWS V14.01,2013-07-08 17:36:00,
2013-07-08 12:42:00,78.6,54.9,29.79,South,190,4.5,4.5,44,0.00,,BKN015,2.21,VWS V14.01,2013-07-08 17:42:00,
2013-07-08 12:47:00,78.6,53.6,29.79,WNW,303,2.7,4.9,42,0.00,,BKN015,2.21,VWS V14.01,2013-07-08 17:47:00,
2013-07-08 12:52:00,78.6,54.3,29.79,NNW,327,2.7,4.0,43,0.00,,BKN015,2.21,VWS V14.01,2013-07-08 17:52:00,
2013-07-08 12:57:00,78.8,54.4,29.79,West,270,2.7,3.6,43,0.00,,BKN015,2.21,VWS V14.01,2013-07-08 17:57:00,
2013-07-08 13:03:00,79.5,54.4,29.79,SSW,209,2.7,2.7,42,0.00,,SCT026,2.21,VWS V14.01,2013-07-08 18:03:00,
2013-07-08 13:09:00,80.1,54.3,29.79,WSW,253,5.8,5.8,41,0.00,,SCT026,2.21,VWS V14.01,2013-07-08 18:09:00,
2013-07-08 13:14:00,80.4,54.6,29.79,NNE,24,3.6,4.0,41,0.00,,SCT026,2.21,VWS V14.01,2013-07-08 18:14:00,
2013-07-08 13:19:00,80.8,54.9,29.79,NW,307,6.3,6.3,41,0.00,,SCT026,2.21,VWS V14.01,2013-07-08 18:19:00,
2013-07-08 13:24:00,81.1,53.9,29.79,North,357,3.6,6.3,39,0.00,,SCT026,2.21,VWS V14.01,2013-07-08 18:24:00,
2013-07-08 13:32:00,80.2,51.6,29.79,North,353,3.1,5.8,37,0.00,,SCT026,2.21,VWS V14.01,2013-07-08 18:32:00,
2013-07-08 13:38:00,79.9,54.8,29.79,North,353,6.3,6.3,42,0.00,,SCT026,2.21,VWS V14.01,2013-07-08 18:38:00,
2013-07-08 13:43:00,80.2,55.1,29.79,North,5,0.0,3.1,42,0.00,,SCT026,2.21,VWS V14.01,2013-07-08 18:43:00,
2013-07-08 13:49:00,80.6,52.7,29.79,North,353,8.1,8.1,38,0.00,,SCT026,2.21,VWS V14.01,2013-07-08 18:49:00,
2013-07-08 13:54:00,80.8,54.2,29.79,North,4,3.6,8.1,40,0.00,,SCT026,2.21,VWS V14.01,2013-07-08 18:54:00,
2013-07-08 13:59:00,81.0,54.4,29.79,NNE,23,5.4,5.8,40,0.00,,SCT026,2.21,VWS V14.01,2013-07-08 18:59:00,
2013-07-08 14:05:00,80.8,53.5,29.79,NNW,338,4.0,5.4,39,0.00,,BKN046,2.21,VWS V14.01,2013-07-08 19:05:00,
2013-07-08 14:10:00,80.6,52.7,29.79,North,2,7.2,7.2,38,0.00,,BKN046,2.21,VWS V14.01,2013-07-08 19:10:00,
2013-07-08 14:17:00,81.0,53.7,29.82,NNW,341,6.3,6.3,39,0.00,,BKN046,2.21,VWS V14.01,2013-07-08 19:17:00,
2013-07-08 14:23:00,81.3,51.8,29.82,North,2,0.0,0.0,36,0.00,,BKN046,2.21,VWS V14.01,2013-07-08 19:23:00,
2013-07-08 14:30:00,81.7,52.2,29.82,NNW,337,2.7,4.0,36,0.00,,BKN046,2.21,VWS V14.01,2013-07-08 19:30:00,
2013-07-08 14:36:00,82.0,52.5,29.82,North,353,5.4,6.3,36,0.00,,BKN046,2.21,VWS V14.01,2013-07-08 19:36:00,
2013-07-08 14:42:00,82.8,52.3,29.82,North,353,0.0,0.0,35,0.00,,BKN046,2.21,VWS V14.01,2013-07-08 19:42:00,
2013-07-08 14:48:00,83.1,51.1,29.79,NW,305,3.1,6.3,33,0.00,,BKN046,2.21,VWS V14.01,2013-07-08 19:48:00,
2013-07-08 14:54:00,83.8,51.7,29.79,NNE,29,4.0,4.0,33,0.00,,BKN046,2.21,VWS V14.01,2013-07-08 19:54:00,
2013-07-08 14:59:00,84.6,50.6,29.79,NNW,331,4.0,4.0,31,0.00,,BKN046,2.21,VWS V14.01,2013-07-08 19:59:00,
2013-07-08 15:05:00,84.9,50.1,29.79,SW,233,4.0,4.0,30,0.00,,BKN047,2.21,VWS V14.01,2013-07-08 20:05:00,
2013-07-08 15:10:00,85.1,49.3,29.79,SSW,212,5.4,5.8,29,0.00,,BKN047,2.21,VWS V14.01,2013-07-08 20:10:00,
2013-07-08 15:16:00,85.1,49.3,29.79,NW,306,4.0,4.0,29,0.00,,BKN047,2.21,VWS V14.01,2013-07-08 20:16:00,
2013-07-08 15:21:00,85.3,49.5,29.79,NNW,339,0.0,0.0,29,0.00,,BKN047,2.21,VWS V14.01,2013-07-08 20:21:00,
2013-07-08 15:26:00,85.8,49.9,29.79,West,268,3.1,3.1,29,0.00,,BKN047,2.21,VWS V14.01,2013-07-08 20:26:00,
2013-07-08 15:31:00,85.8,49.0,29.79,WNW,301,2.7,4.0,28,0.00,,BKN047,2.21,VWS V14.01,2013-07-08 20:31:00,
2013-07-08 15:37:00,84.0,49.3,29.79,North,11,3.6,5.4,30,0.00,,BKN047,2.21,VWS V14.01,2013-07-08 20:37:00,
2013-07-08 15:45:00,82.0,50.1,29.79,North,7,0.0,0.0,33,0.00,,BKN047,2.21,VWS V14.01,2013-07-08 20:45:00,
2013-07-08 15:51:00,81.5,52.7,29.82,NNE,15,5.8,5.8,37,0.00,,BKN047,2.21,VWS V14.01,2013-07-08 20:51:00,
2013-07-08 15:58:00,82.6,54.4,29.82,NNW,339,4.0,7.2,38,0.00,,BKN047,2.21,VWS V14.01,2013-07-08 20:58:00,
2013-07-08 16:04:00,83.5,53.8,29.79,NNE,26,5.8,5.8,36,0.00,,BKN047,2.21,VWS V14.01,2013-07-08 21:04:00,
2013-07-08 16:09:00,84.0,51.0,29.79,NNE,22,4.5,4.9,32,0.00,,BKN047,2.21,VWS V14.01,2013-07-08 21:09:00,
2013-07-08 16:15:00,84.4,51.3,29.79,NNE,22,4.0,5.4,32,0.00,,BKN047,2.21,VWS V14.01,2013-07-08 21:15:00,
2013-07-08 16:20:00,84.9,52.6,29.82,NNE,31,0.0,0.0,33,0.00,,BKN047,2.21,VWS V14.01,2013-07-08 21:20:00,
2013-07-08 16:26:00,85.1,49.3,29.82,NNE,25,7.6,8.7,29,0.00,,BKN047,2.21,VWS V14.01,2013-07-08 21:26:00,
2013-07-08 16:32:00,85.3,50.4,29.79,NNE,15,7.6,7.6,30,0.00,,BKN047,2.21,VWS V14.01,2013-07-08 21:32:00,
2013-07-08 16:38:00,84.7,49.0,29.79,NNE,27,3.6,4.9,29,0.00,,BKN047,2.21,VWS V14.01,2013-07-08 21:38:00,
2013-07-08 16:43:00,85.1,50.2,29.79,NNE,27,6.3,7.6,30,0.00,,BKN047,2.21,VWS V14.01,2013-07-08 21:43:00,
2013-07-08 16:50:00,86.2,49.3,29.82,NNE,17,4.0,5.4,28,0.00,,BKN047,2.21,VWS V14.01,2013-07-08 21:50:00,
2013-07-08 16:58:00,86.5,47.6,29.82,NNE,13,6.3,10.1,26,0.00,,BKN047,2.21,VWS V14.01,2013-07-08 21:58:00,
2013-07-08 17:03:00,85.6,48.8,29.82,North,2,6.3,6.3,28,0.00,,SCT050,2.21,VWS V14.01,2013-07-08 22:03:00,
2013-07-08 17:11:00,84.9,49.2,29.82,North,350,4.9,5.8,29,0.00,,SCT050,2.21,VWS V14.01,2013-07-08 22:11:00,
2013-07-08 17:17:00,85.5,48.7,29.82,NNE,17,5.8,8.7,28,0.00,,SCT050,2.21,VWS V14.01,2013-07-08 22:17:00,
2013-07-08 17:22:00,85.8,49.0,29.82,NNE,24,5.4,5.8,28,0.00,,SCT050,2.21,VWS V14.01,2013-07-08 22:22:00,
2013-07-08 17:28:00,85.8,49.0,29.82,ENE,61,0.0,0.0,28,0.00,,SCT050,2.21,VWS V14.01,2013-07-08 22:28:00,
2013-07-08 17:33:00,86.0,46.1,29.82,NNE,25,7.2,7.6,25,0.00,,SCT050,2.21,VWS V14.01,2013-07-08 22:33:00,
2013-07-08 17:39:00,86.0,45.0,29.82,North,0,5.4,6.3,24,0.00,,SCT050,2.21,VWS V14.01,2013-07-08 22:39:00,
2013-07-08 17:45:00,85.1,47.4,29.82,North,353,3.6,5.8,27,0.00,,SCT050,2.21,VWS V14.01,2013-07-08 22:45:00,
2013-07-08 17:52:00,85.3,47.5,29.82,NE,40,2.7,2.7,27,0.00,,SCT050,2.21,VWS V14.01,2013-07-08 22:52:00,
2013-07-08 17:57:00,86.2,47.3,29.82,North,2,6.3,6.3,26,0.00,,SCT050,2.21,VWS V14.01,2013-07-08 22:57:00,
2013-07-08 18:02:00,86.7,45.7,29.82,NNE,18,4.9,5.4,24,0.00,,FEW036,2.21,VWS V14.01,2013-07-08 23:02:00,
2013-07-08 18:10:00,86.4,46.4,29.82,North,8,2.7,5.8,25,0.00,,FEW036,2.21,VWS V14.01,2013-07-08 23:10:00,
2013-07-08 18:16:00,86.4,44.2,29.82,North,9,7.6,7.6,23,0.00,,FEW036,2.21,VWS V14.01,2013-07-08 23:16:00,
2013-07-08 18:23:00,85.5,43.5,29.82,North,8,5.8,6.3,23,0.00,,FEW036,2.21,VWS V14.01,2013-07-08 23:23:00,
2013-07-08 18:28:00,84.9,44.1,29.82,North,10,4.0,4.5,24,0.00,,FEW036,2.21,VWS V14.01,2013-07-08 23:28:00,
2013-07-08 18:34:00,84.9,45.2,29.82,NNE,29,0.0,0.0,25,0.00,,FEW036,2.21,VWS V14.01,2013-07-08 23:34:00,
2013-07-08 18:39:00,85.3,45.5,29.82,NNE,15,0.0,0.0,25,0.00,,FEW036,2.21,VWS V14.01,2013-07-08 23:39:00,
2013-07-08 18:49:00,84.9,43.0,29.82,NNE,29,2.7,5.8,23,0.00,,FEW036,2.21,VWS V14.01,2013-07-08 23:49:00,
2013-07-08 18:54:00,84.4,45.8,29.82,North,357,0.0,2.7,26,0.00,,FEW036,2.21,VWS V14.01,2013-07-08 23:54:00,
2013-07-08 19:01:00,84.6,47.9,29.82,ENE,59,0.0,0.0,28,0.00,,FEW032,2.21,VWS V14.01,2013-07-09 00:01:00,
2013-07-08 19:06:00,84.9,48.2,29.82,NNE,14,0.0,3.1,28,0.00,,FEW032,2.21,VWS V14.01,2013-07-09 00:06:00,
2013-07-08 19:12:00,84.7,48.1,29.82,NNE,12,3.6,7.6,28,0.00,,FEW032,2.21,VWS V14.01,2013-07-09 00:12:00,
2013-07-08 19:19:00,83.8,48.2,29.82,North,4,0.0,0.0,29,0.00,,FEW032,2.21,VWS V14.01,2013-07-09 00:19:00,
2013-07-08 19:24:00,83.7,48.1,29.82,NNE,16,0.0,0.0,29,0.00,,FEW032,2.21,VWS V14.01,2013-07-09 00:24:00,
2013-07-08 19:30:00,83.5,47.9,29.82,ESE,122,3.1,3.1,29,0.00,,FEW032,2.21,VWS V14.01,2013-07-09 00:30:00,
2013-07-08 19:35:00,83.1,47.6,29.82,ENE,68,3.6,6.3,29,0.00,,FEW032,2.21,VWS V14.01,2013-07-09 00:35:00,
2013-07-08 19:41:00,82.4,47.0,29.82,NE,50,0.0,0.0,29,0.00,,FEW032,2.21,VWS V14.01,2013-07-09 00:41:00,
2013-07-08 19:47:00,81.9,47.4,29.85,ENE,64,0.0,0.0,30,0.00,,FEW032,2.21,VWS V14.01,2013-07-09 00:47:00,
2013-07-08 19:52:00,81.1,46.8,29.85,ENE,58,0.0,2.7,30,0.00,,FEW032,2.21,VWS V14.01,2013-07-09 00:52:00,
2013-07-08 19:58:00,80.6,47.2,29.85,ENE,58,0.0,0.0,31,0.00,,FEW032,2.21,VWS V14.01,2013-07-09 00:58:00,
2013-07-08 20:03:00,80.4,47.0,29.85,ESE,108,0.0,0.0,31,0.00,,CLR,2.21,VWS V14.01,2013-07-09 01:03:00,
2013-07-08 20:10:00,79.7,47.3,29.85,NE,55,0.0,0.0,32,0.00,,CLR,2.21,VWS V14.01,2013-07-09 01:10:00,
2013-07-08 20:15:00,79.3,47.8,29.85,NE,55,0.0,0.0,33,0.00,,CLR,2.21,VWS V14.01,2013-07-09 01:15:00,
2013-07-08 20:20:00,79.0,48.2,29.85,NE,55,0.0,0.0,34,0.00,,CLR,2.21,VWS V14.01,2013-07-09 01:20:00,
2013-07-08 20:26:00,78.6,48.7,29.85,NE,55,0.0,0.0,35,0.00,,CLR,2.21,VWS V14.01,2013-07-09 01:26:00,
2013-07-08 20:31:00,78.1,49.0,29.85,NE,55,0.0,0.0,36,0.00,,CLR,2.21,VWS V14.01,2013-07-09 01:31:00,
2013-07-08 20:38:00,77.4,49.8,29.85,NE,55,0.0,0.0,38,0.00,,CLR,2.21,VWS V14.01,2013-07-09 01:38:00,
2013-07-08 20:44:00,77.0,50.9,29.85,NE,55,0.0,0.0,40,0.00,,CLR,2.21,VWS V14.01,2013-07-09 01:44:00,
2013-07-08 20:49:00,76.6,51.2,29.85,NE,55,0.0,0.0,41,0.00,,CLR,2.21,VWS V14.01,2013-07-09 01:49:00,
2013-07-08 20:54:00,76.5,51.7,29.85,ENE,58,0.0,0.0,42,0.00,,CLR,2.21,VWS V14.01,2013-07-09 01:54:00,
2013-07-08 21:01:00,75.9,51.8,29.85,ENE,58,0.0,0.0,43,0.00,,FEW017,2.21,VWS V14.01,2013-07-09 02:01:00,
2013-07-08 21:06:00,75.7,52.3,29.85,ENE,59,0.0,0.0,44,0.00,,FEW017,2.21,VWS V14.01,2013-07-09 02:06:00,
2013-07-08 21:11:00,75.6,52.8,29.85,ESE,105,4.9,4.9,45,0.00,,FEW017,2.21,VWS V14.01,2013-07-09 02:11:00,
2013-07-08 21:16:00,75.4,53.2,29.85,ESE,121,0.0,0.0,46,0.00,,FEW017,2.21,VWS V14.01,2013-07-09 02:16:00,
2013-07-08 21:21:00,75.2,53.6,29.85,ENE,57,0.0,2.2,47,0.00,,FEW017,2.21,VWS V14.01,2013-07-09 02:21:00,
2013-07-08 21:28:00,75.0,54.6,29.85,ESE,113,2.7,2.7,49,0.00,,FEW017,2.21,VWS V14.01,2013-07-09 02:28:00,
2013-07-08 21:33:00,74.8,55.0,29.85,East,100,0.0,0.0,50,0.00,,FEW017,2.21,VWS V14.01,2013-07-09 02:33:00,
2013-07-08 21:39:00,74.5,55.2,29.85,ESE,119,3.1,4.5,51,0.00,,FEW017,2.21,VWS V14.01,2013-07-09 02:39:00,
2013-07-08 21:44:00,74.3,55.6,29.85,ENE,63,0.0,3.1,52,0.00,,FEW017,2.21,VWS V14.01,2013-07-09 02:44:00,
2013-07-08 21:50:00,74.1,55.9,29.85,ENE,63,0.0,0.0,53,0.00,,FEW017,2.21,VWS V14.01,2013-07-09 02:50:00,
2013-07-08 21:55:00,73.9,56.3,29.85,ENE,63,0.0,0.0,54,0.00,,FEW017,2.21,VWS V14.01,2013-07-09 02:55:00,
2013-07-08 22:02:00,73.6,56.4,29.88,ENE,63,0.0,0.0,55,0.00,,CLR,2.21,VWS V14.01,2013-07-09 03:02:00,
2013-07-08 22:09:00,73.4,56.8,29.88,ENE,63,0.0,0.0,56,0.00,,CLR,2.21,VWS V14.01,2013-07-09 03:09:00,
2013-07-08 22:14:00,73.2,57.1,29.88,ENE,63,0.0,0.0,57,0.00,,CLR,2.21,VWS V14.01,2013-07-09 03:14:00,
2013-07-08 22:20:00,73.0,57.4,29.88,ENE,63,0.0,0.0,58,0.00,,CLR,2.21,VWS V14.01,2013-07-09 03:20:00,
2013-07-08 22:26:00,72.7,57.5,29.88,ENE,63,0.0,0.0,59,0.00,,CLR,2.21,VWS V14.01,2013-07-09 03:26:00,
2013-07-08 22:31:00,72.5,57.8,29.88,ENE,63,0.0,0.0,60,0.00,,CLR,2.21,VWS V14.01,2013-07-09 03:31:00,
2013-07-08 22:37:00,72.3,58.1,29.88,ENE,63,0.0,0.0,61,0.00,,CLR,2.21,VWS V14.01,2013-07-09 03:37:00,
2013-07-08 22:42:00,72.1,58.0,29.88,ENE,63,0.0,0.0,61,0.00,,CLR,2.21,VWS V14.01,2013-07-09 03:42:00,
2013-07-08 22:49:00,72.0,58.2,29.85,ENE,63,0.0,0.0,62,0.00,,CLR,2.21,VWS V14.01,2013-07-09 03:49:00,
2013-07-08 22:57:00,71.8,59.0,29.85,ENE,63,0.0,0.0,64,0.00,,CLR,2.21,VWS V14.01,2013-07-09 03:57:00,
2013-07-08 23:01:00,71.6,58.8,29.88,ENE,63,0.0,0.0,64,0.00,,CLR,2.21,VWS V14.01,2013-07-09 04:01:00,
2013-07-08 23:02:00,71.6,58.8,29.88,ENE,63,0.0,0.0,64,0.00,,CLR,2.21,VWS V14.01,2013-07-09 04:02:00,
2013-07-08 23:03:00,71.6,58.8,29.88,ENE,63,0.0,0.0,64,0.00,,CLR,2.21,VWS V14.01,2013-07-09 04:03:00,
2013-07-08 23:07:00,71.6,59.2,29.88,ENE,67,0.0,0.0,65,0.00,,CLR,2.21,VWS V14.01,2013-07-09 04:07:00,
2013-07-08 23:12:00,71.4,59.5,29.88,ESE,114,0.0,0.0,66,0.00,,CLR,2.21,VWS V14.01,2013-07-09 04:12:00,
2013-07-08 23:17:00,71.2,59.7,29.85,ESE,113,0.0,0.0,67,0.00,,CLR,2.21,VWS V14.01,2013-07-09 04:17:00,
2013-07-08 23:22:00,71.2,59.7,29.85,East,97,0.0,0.0,67,0.00,,CLR,2.21,VWS V14.01,2013-07-09 04:22:00,
2013-07-08 23:28:00,71.1,60.0,29.85,ESE,103,0.0,0.0,68,0.00,,CLR,2.21,VWS V14.01,2013-07-09 04:28:00,
2013-07-08 23:33:00,71.1,60.0,29.88,ESE,103,0.0,0.0,68,0.00,,CLR,2.21,VWS V14.01,2013-07-09 04:33:00,
2013-07-08 23:39:00,70.9,60.2,29.88,ESE,104,0.0,2.7,69,0.00,,CLR,2.21,VWS V14.01,2013-07-09 04:39:00,
2013-07-08 23:44:00,70.9,60.2,29.88,ESE,104,0.0,0.0,69,0.00,,CLR,2.21,VWS V14.01,2013-07-09 04:44:00,
2013-07-08 23:49:00,70.7,60.5,29.85,East,101,0.0,2.7,70,0.00,,CLR,2.21,VWS V14.01,2013-07-09 04:49:00,
2013-07-08 23:54:00,70.7,60.5,29.85,ESE,102,0.0,0.0,70,0.00,,CLR,2.21,VWS V14.01,2013-07-09 04:54:00,